Theta_e
288 288 288 288 288 288 288 288 288 288 288 288 288 287 287 286 285 285 284 284 284 283 283 282 282 282 281 281 281 281 281 281 281 281 281 281 281 281 281 280 280 280 280 280 279 279 279 279 279 279 279 279 280 280 281 281 281 281 282 282 282 283 283 284 284 285 285 285 285 285 286 286 286 286 286 286 286 286 286 286 287 287 287 287 286
288 288 288 288 288 288 288 287 287 287 287 287 287 286 286 285 285 284 284 284 283 282 282 282 281 281 281 281 281 281 281 281 281 281 281 280 280 280 280 280 280 280 280 279 279 279 279 279 279 279 279 279 279 279 279 280 280 280 280 281 281 282 282 282 283 283 283 284 284 284 284 285 285 285 285 286 286 286 286 286 286 286 286 286 287
288 288 288 287 287 287 287 287 287 287 287 287 286 286 285 285 284 284 283 283 283 282 282 281 281 281 281 280 280 281 281 281 280 280 280 280 280 280 280 280 280 279 279 279 279 279 278 278 278 278 278 277 278 278 278 278 279 279 279 279 280 280 281 281 281 282 282 283 283 283 283 284 284 284 285 285 285 285 285 285 285 286 286 286 286
288 288 287 287 287 287 287 287 287 287 287 286 285 285 285 284 284 284 283 283 282 282 281 281 281 280 280 280 280 280 280 280 280 280 279 279 279 279 279 279 279 278 278 278 278 277 277 277 277 277 277 277 277 277 277 277 277 278 278 278 278 279 279 280 280 281 281 282 282 282 282 283 283 283 283 284 284 284 284 285 285 285 286 286 286
287 287 287 287 287 286 286 287 286 287 287 286 285 284 284 284 284 284 284 283 282 282 281 281 280 280 280 280 280 280 279 279 279 279 279 279 279 279 279 278 278 278 277 277 277 276 276 276 276 276 276 276 276 276 276 276 276 277 277 277 278 278 278 279 279 280 280 281 281 281 282 282 282 282 283 283 283 284 284 284 285 285 285 285 286
287 287 287 287 286 286 286 286 287 287 286 285 284 284 284 284 284 284 284 284 283 282 281 280 280 280 279 279 279 279 279 278 278 278 278 278 278 278 278 277 277 277 276 276 276 275 275 275 275 275 275 275 276 276 276 276 276 276 277 277 277 277 278 278 278 279 279 279 280 280 281 281 281 282 282 282 283 283 283 284 284 284 285 285 285
287 286 286 287 286 286 286 287 287 286 285 284 284 284 284 285 284 284 284 284 283 282 281 280 279 279 279 279 279 278 278 278 277 277 277 277 277 277 277 276 276 276 276 275 275 275 275 275 275 275 275 275 275 275 275 275 275 276 276 276 276 276 277 277 277 277 278 278 279 279 279 280 280 280 281 281 281 282 283 283 283 284 284 284 285
287 287 287 287 287 286 287 287 286 285 284 283 283 284 284 285 285 285 284 284 283 282 280 279 279 279 279 278 278 278 278 277 277 277 277 277 277 276 276 276 275 275 275 275 275 274 274 274 274 274 274 274 274 274 274 274 274 274 274 275 275 275 276 276 276 276 276 277 277 278 278 278 278 279 280 280 281 281 282 282 283 283 283 283 284
287 287 287 287 287 287 287 286 286 285 283 283 283 284 285 285 285 284 284 283 283 281 280 279 279 278 278 278 278 278 277 277 277 276 276 276 276 276 275 275 274 274 274 274 274 274 274 274 274 273 273 273 273 273 273 273 273 273 274 274 274 274 274 275 275 275 275 275 276 276 276 277 277 278 278 279 279 280 280 280 281 282 282 282 283
288 287 287 287 286 286 286 286 285 284 283 282 283 284 285 285 284 284 283 283 282 281 280 279 279 278 278 278 277 277 277 276 276 276 276 275 275 274 274 273 273 274 274 274 274 273 273 273 273 273 272 272 272 272 272 272 272 273 273 273 273 274 274 274 274 274 275 275 275 276 276 276 277 277 277 278 278 278 278 279 280 280 281 281 282
288 287 287 286 286 286 286 285 284 283 282 283 284 285 285 284 284 283 283 282 281 280 279 279 278 278 277 277 277 276 276 276 276 275 275 274 274 273 272 273 273 273 273 273 273 273 273 273 272 272 272 271 271 271 271 272 272 272 272 273 273 273 273 273 273 274 274 274 275 275 275 276 276 276 276 276 277 277 277 278 278 279 279 279 280
287 287 286 286 286 285 285 284 284 283 283 283 284 285 284 284 284 283 282 281 280 279 278 278 277 277 277 276 276 276 275 275 275 275 274 274 273 272 272 273 273 273 273 273 273 273 272 272 271 271 271 271 270 270 271 271 271 271 271 272 272 272 272 273 273 273 273 274 274 274 274 275 275 275 275 275 276 276 276 277 277 277 278 278 279
287 286 286 286 285 285 285 284 283 283 283 284 284 284 284 284 283 281 280 280 279 278 278 277 277 276 276 275 275 275 275 275 274 274 274 274 273 271 271 272 272 272 272 272 272 272 271 271 270 270 270 270 270 270 270 271 271 271 271 271 271 272 272 273 273 274 274 274 274 274 274 274 274 275 275 275 276 276 276 277 277 277 278 278 278
286 286 285 285 285 285 284 284 283 283 283 284 284 284 284 283 281 280 279 278 278 277 277 276 276 275 275 274 274 274 274 274 274 274 273 273 272 271 271 272 272 272 271 271 271 271 270 270 270 270 270 270 270 270 270 270 271 271 271 271 272 272 272 273 273 274 274 274 274 274 274 274 274 275 275 275 275 276 276 276 277 277 278 278 278
286 285 285 285 285 284 284 284 283 283 284 284 284 283 283 281 280 279 278 277 277 276 276 275 275 274 274 274 274 274 274 274 273 273 273 272 271 271 271 271 270 270 270 270 270 270 270 270 269 269 269 269 270 270 270 271 271 271 272 272 272 273 273 273 273 274 274 274 274 274 274 275 275 275 275 275 276 276 276 277 277 277 278 278 278
285 285 285 285 284 284 284 284 283 283 284 284 283 282 281 280 279 278 277 277 276 276 275 275 274 274 274 273 273 273 273 273 273 272 272 271 270 269 270 270 269 269 269 269 269 269 269 269 269 269 270 269 270 270 271 272 272 272 273 273 273 273 274 274 274 275 275 275 275 275 275 275 276 276 276 276 277 277 277 277 277 277 277 277 278
285 285 285 285 285 284 284 284 284 284 283 283 282 281 280 279 277 277 277 276 276 275 275 274 274 273 273 273 273 273 273 273 272 272 271 270 269 269 269 269 269 269 269 269 269 269 269 269 269 270 270 270 270 271 272 273 273 273 274 274 274 275 275 275 275 275 275 276 276 276 276 276 276 276 276 277 277 277 277 277 277 277 277 277 277
285 285 285 285 285 284 284 284 283 283 282 282 281 280 279 278 277 277 276 276 275 275 274 274 273 273 272 272 272 272 272 272 272 271 270 269 268 268 269 269 269 269 269 269 269 269 269 270 270 270 270 271 271 272 273 273 274 274 275 275 275 275 275 275 275 275 276 276 276 276 276 276 276 276 276 276 276 276 276 276 276 276 276 277 277
285 285 286 286 285 284 284 283 283 282 282 281 280 279 278 277 277 276 276 275 275 274 273 273 272 272 272 272 272 272 272 272 271 270 270 269 268 269 269 269 269 269 269 269 269 269 270 270 270 271 271 272 272 273 274 274 274 275 275 275 275 275 275 276 276 276 276 276 276 276 276 276 276 276 276 276 276 276 276 276 276 276 276 276 276
286 286 286 285 284 283 283 283 282 282 281 280 279 278 278 277 276 276 275 274 274 273 273 272 272 271 271 271 272 272 272 271 270 270 269 268 268 269 270 270 270 270 270 270 270 270 271 271 271 271 272 273 273 274 274 274 275 275 275 276 276 276 276 276 276 276 276 276 276 276 276 276 275 275 275 275 275 275 275 275 275 275 275 276 276
286 285 285 284 283 283 282 282 281 281 280 279 278 278 277 276 275 275 274 274 273 272 272 271 271 271 271 271 271 271 271 271 270 269 269 268 268 269 270 270 270 270 271 271 271 271 271 271 272 272 273 273 273 274 274 275 275 275 276 276 276 276 276 276 276 275 275 275 275 275 275 275 275 275 275 275 275 275 275 275 275 275 275 275 275
285 285 284 283 282 282 282 281 281 280 279 279 278 277 276 275 275 274 273 273 272 272 271 271 270 270 270 270 271 271 271 270 269 269 268 268 268 269 270 270 271 271 271 272 271 272 272 272 272 272 272 273 273 274 275 275 275 275 276 276 275 275 275 275 274 274 274 274 274 274 274 274 274 274 274 274 274 274 274 274 274 274 274 274 274
285 284 283 282 282 281 281 280 280 279 278 278 277 276 275 274 273 273 272 271 271 271 270 270 270 269 269 270 270 271 270 270 269 268 268 268 268 270 270 271 271 271 272 272 272 272 272 272 272 272 273 274 274 275 275 274 274 274 274 274 274 274 273 273 272 272 272 272 272 272 273 273 273 273 273 273 273 273 273 273 273 272 272 272 273
283 282 282 281 281 280 280 279 279 278 277 277 276 275 274 273 272 272 271 270 270 270 269 269 268 268 267 268 268 269 269 268 267 267 267 268 269 270 270 271 271 271 272 272 272 272 272 272 273 273 274 274 274 274 273 273 272 272 272 272 272 271 271 270 270 270 270 270 271 271 271 272 272 272 272 272 272 272 272 272 272 272 272 272 272
282 281 281 281 280 279 279 278 278 277 276 275 274 273 273 272 271 271 270 270 269 269 268 268 267 266 266 265 266 267 267 266 266 267 267 268 269 269 270 271 271 272 272 272 272 272 272 273 273 273 273 272 272 271 271 270 270 270 270 270 269 269 269 268 269 269 269 269 270 270 270 270 271 271 271 271 271 271 271 271 272 272 272 272 272
281 281 280 280 279 278 278 277 277 276 275 274 273 272 272 271 270 270 270 269 269 268 268 267 266 265 264 264 265 266 266 267 267 267 268 268 269 269 270 271 271 272 272 272 272 271 271 271 271 270 270 269 269 268 268 268 268 268 268 268 267 267 267 267 267 268 268 268 269 269 270 270 270 270 270 270 270 271 271 271 271 272 272 272 272
281 280 279 279 278 277 277 277 276 275 274 273 272 271 271 270 270 270 270 269 269 268 267 266 265 264 264 265 266 266 266 267 268 268 268 268 269 270 271 271 272 272 271 270 270 270 269 269 268 268 267 267 267 266 266 266 266 266 266 266 266 266 266 266 267 267 267 268 268 268 268 269 269 269 269 270 270 270 271 271 271 272 272 272 272
280 279 279 278 277 277 277 276 275 274 273 272 271 271 270 270 269 270 269 269 268 267 266 265 264 264 265 266 266 266 267 267 268 268 268 269 270 271 271 271 272 271 270 270 269 269 268 267 266 266 266 265 265 265 265 265 265 265 265 265 265 266 266 266 266 266 267 267 267 267 267 267 268 268 269 269 270 270 270 271 271 272 272 272 273
278 278 278 277 277 276 275 274 274 273 272 271 270 270 270 270 269 269 269 269 268 267 266 265 265 266 266 267 267 267 267 268 268 268 269 270 271 271 271 271 271 270 269 269 268 267 266 266 265 265 265 265 265 265 265 265 265 265 265 265 265 265 265 265 266 266 266 266 266 266 267 267 267 268 268 269 269 270 270 271 271 272 272 273 273
277 276 276 276 276 275 274 273 273 271 271 270 270 269 269 269 269 269 269 269 269 267 266 266 266 267 267 267 267 267 267 268 268 269 269 270 271 271 271 271 270 269 269 268 267 266 266 265 264 264 264 264 264 264 264 264 264 265 265 265 265 265 265 266 266 266 266 266 266 266 267 267 267 268 268 269 269 270 270 271 272 272 273 273 273
276 276 276 275 275 274 274 273 272 270 270 269 269 269 269 269 268 268 268 268 267 266 265 266 267 267 267 267 267 267 267 267 268 269 269 270 270 271 270 270 269 268 268 267 266 265 265 264 264 264 264 264 264 264 264 264 264 264 264 265 265 265 265 266 266 266 266 266 266 266 267 267 268 268 269 269 270 270 271 272 272 273 273 273 274
277 276 276 275 274 274 273 272 270 269 269 268 268 268 268 268 268 268 267 267 267 266 266 266 266 266 266 266 266 266 267 267 268 268 269 270 270 270 269 268 268 267 266 266 265 265 264 263 263 263 263 263 263 263 263 263 264 264 264 264 265 265 266 266 266 266 266 266 266 267 267 268 268 269 269 270 270 271 271 272 272 273 273 274 274
277 277 276 274 273 273 271 270 269 269 268 268 267 267 267 267 268 268 267 267 267 267 266 266 266 265 265 265 266 266 266 267 268 268 269 269 269 268 268 267 267 266 266 266 265 264 263 263 263 263 263 263 263 263 263 263 263 264 264 264 265 265 266 266 266 266 266 267 267 268 268 268 268 269 269 270 270 270 271 271 272 272 273 274 275
275 275 275 275 274 272 271 270 269 268 268 267 266 266 266 266 267 268 268 268 268 267 266 266 265 265 264 264 265 265 266 267 267 268 269 268 267 267 267 267 266 266 266 266 265 263 262 262 262 262 262 262 262 263 263 263 263 264 264 264 265 265 266 266 266 267 267 268 268 268 268 268 268 269 269 269 270 270 270 271 272 273 273 274 275
273 273 274 274 273 272 271 270 269 268 267 266 266 266 266 266 267 267 268 268 268 268 267 266 265 265 265 265 265 265 265 266 267 268 268 267 266 266 266 266 266 266 266 265 263 262 262 262 262 262 262 262 262 262 263 263 263 263 264 264 265 265 266 266 267 268 268 268 268 268 268 268 268 268 269 269 269 270 270 271 272 273 273 274 275
272 272 272 272 271 270 270 269 268 267 267 266 266 266 266 266 266 266 266 266 266 266 266 266 265 265 265 265 265 265 265 265 266 267 266 265 265 265 265 265 265 265 264 263 263 262 262 262 261 262 262 262 262 262 262 262 263 264 264 265 265 266 266 267 268 268 268 268 268 268 268 268 268 268 268 269 269 269 270 271 271 272 273 274 275
271 271 271 271 270 269 268 268 267 267 266 266 266 266 266 266 266 265 265 264 264 263 264 265 265 265 264 264 265 265 265 265 265 265 265 264 264 264 264 264 264 263 263 262 262 262 262 262 261 262 262 262 262 262 262 262 263 264 264 265 266 266 267 268 269 268 268 268 268 268 268 268 268 268 268 268 269 269 270 270 271 272 273 273 274
271 271 271 271 270 268 267 266 266 265 265 266 265 265 265 265 264 263 263 263 262 261 261 263 264 264 264 264 264 264 265 265 265 264 264 264 264 264 264 264 263 263 262 262 262 261 261 262 262 262 262 262 262 262 262 262 263 264 264 265 266 267 268 268 269 268 268 268 268 268 268 268 268 268 268 268 268 269 269 270 271 271 272 273 273
269 269 269 269 268 267 266 266 265 265 265 265 265 264 264 263 262 262 262 262 262 261 261 262 263 264 264 264 263 263 264 264 264 264 264 264 264 264 264 264 263 263 262 262 262 262 262 262 262 262 262 263 263 263 263 263 263 264 264 265 266 267 267 268 268 268 268 268 267 267 267 267 267 268 268 268 268 269 269 270 270 271 271 272 273
268 268 267 267 266 265 265 265 265 265 265 265 264 264 263 263 262 262 262 262 262 261 261 262 263 264 264 263 263 262 262 263 263 263 264 264 264 264 264 264 263 263 263 263 263 263 263 263 263 263 263 263 263 264 264 264 264 264 264 265 265 266 267 268 268 268 268 268 267 267 267 267 267 267 267 268 268 268 269 269 270 270 271 272 273
268 267 266 265 264 264 264 264 264 264 264 264 263 263 264 263 263 262 262 262 262 262 262 262 264 264 263 263 263 262 262 263 263 263 263 264 264 264 264 264 263 263 263 263 263 263 263 263 263 263 263 263 263 264 264 264 265 264 264 265 265 266 267 267 268 268 268 268 267 267 267 266 266 267 267 267 268 268 268 269 269 270 270 271 272
267 266 265 264 263 264 264 264 264 264 264 263 263 264 264 263 262 262 262 262 262 262 262 263 264 264 263 263 262 262 262 262 263 263 263 264 264 264 264 264 263 263 263 263 263 263 263 263 263 263 263 264 264 264 264 265 265 265 265 265 265 265 266 267 268 268 268 268 267 267 266 266 266 266 266 267 267 267 268 268 268 269 270 271 272
266 265 264 264 264 264 264 264 264 264 263 263 263 264 263 263 262 262 262 261 261 262 262 264 264 264 264 263 262 261 261 262 262 262 263 264 264 264 264 264 263 263 263 263 263 263 263 263 263 264 264 264 264 264 264 264 264 265 265 265 265 265 266 267 267 268 268 268 268 267 266 266 266 266 266 266 267 267 267 267 268 269 269 270 271
265 264 264 263 263 263 264 264 263 263 263 263 263 263 262 262 262 261 261 261 261 262 263 264 264 264 264 264 263 262 262 262 262 263 263 264 264 264 264 264 263 263 263 263 263 262 263 263 263 264 264 264 264 264 264 264 265 265 265 265 265 265 266 266 267 267 267 268 268 267 266 266 266 266 266 266 266 266 267 267 268 268 269 269 271
264 263 263 263 263 263 263 262 262 262 262 262 262 262 262 261 261 261 261 261 261 262 263 264 264 264 264 264 263 263 262 262 262 263 263 263 264 264 264 263 263 263 263 263 263 262 262 263 263 263 264 264 264 264 264 264 265 265 265 265 265 266 266 266 266 266 267 267 268 267 266 266 266 266 266 266 266 266 266 267 267 268 268 269 270
263 263 262 262 262 262 262 262 262 262 262 262 262 261 261 261 261 261 261 261 261 262 263 263 263 263 263 264 264 263 263 263 262 263 263 263 264 264 263 263 263 263 263 263 263 263 263 263 263 263 263 264 264 264 264 264 264 265 265 265 265 266 266 266 266 266 267 267 268 267 267 266 266 266 266 266 265 265 266 266 266 267 267 268 269
262 262 262 262 262 262 262 262 262 262 261 261 261 261 261 261 261 261 261 261 261 262 263 263 263 263 263 263 263 264 263 263 263 263 263 263 263 263 263 263 263 263 263 263 263 263 263 263 263 263 263 263 263 264 264 264 264 265 265 265 265 266 266 266 266 266 266 267 267 268 267 267 266 266 266 266 266 265 265 265 266 266 267 267 268
262 262 261 261 261 261 261 261 261 261 261 261 261 261 261 261 261 261 261 261 262 262 262 262 263 263 263 263 263 263 263 263 263 262 263 263 263 263 263 263 263 263 263 263 263 263 262 262 262 262 262 262 263 263 263 264 264 264 265 265 265 265 265 266 266 266 266 266 267 268 267 267 267 266 266 266 266 265 265 265 266 266 266 266 267
261 261 261 261 261 261 261 261 261 260 260 260 260 260 260 260 260 261 261 261 262 262 262 262 262 262 262 262 263 263 263 262 262 262 262 263 263 263 263 263 262 262 262 262 263 263 262 262 262 262 262 262 262 262 263 263 264 264 264 265 265 265 265 266 266 266 266 266 267 268 268 267 267 266 266 266 266 266 265 266 265 265 266 266 266
261 261 261 260 261 261 261 260 260 260 260 259 260 260 260 260 260 261 261 261 261 261 261 262 262 262 262 262 262 262 262 262 262 262 262 262 262 262 262 262 262 262 262 262 262 263 263 263 262 262 262 262 262 262 262 263 263 264 264 264 264 265 265 265 266 266 266 266 267 268 268 267 267 267 266 266 266 266 266 266 266 266 266 266 266
260 260 260 260 260 260 260 260 260 260 260 260 260 260 260 260 260 261 261 261 261 261 261 261 261 261 261 261 261 261 262 262 262 261 261 262 262 262 262 262 262 262 262 262 262 262 262 262 262 263 263 263 262 262 262 262 262 263 263 264 264 264 264 265 265 265 266 266 267 268 268 267 267 267 266 266 266 266 266 266 266 266 266 266 266
Wind_Speed
22 21 19 17 16 15 14 12 11 9 8 7 7 7 8 8 8 9 10 10 12 12 12 13 13 14 15 15 16 16 17 18 18 19 19 19 20 21 21 22 22 21 21 22 22 22 22 22 20 19 18 16 15 14 14 14 14 15 14 15 16 15 15 17 17 20 24 22 22 26 24 25 32 32 27 27 27 26 25 24 24 26 27 28 32
21 20 18 17 15 14 12 11 9 7 6 5 5 6 6 7 8 9 10 11 12 13 13 14 14 15 15 16 16 16 17 17 18 18 19 20 20 21 22 22 22 22 22 23 23 23 24 24 24 22 21 20 18 15 15 15 15 16 15 15 17 17 15 18 19 20 25 26 23 25 23 20 28 35 29 26 28 27 25 26 25 26 28 28 28
21 19 18 17 15 13 11 10 8 6 4 3 3 4 6 7 9 10 11 12 13 14 14 15 15 16 16 16 16 17 17 17 18 18 19 19 20 21 22 22 23 23 23 23 24 24 24 25 24 22 22 22 20 17 15 15 15 16 17 16 18 19 17 17 20 21 25 29 26 24 23 19 22 28 28 27 31 31 29 28 27 25 25 27 28
22 20 18 17 15 13 12 10 8 6 3 2 2 4 6 8 9 11 12 13 13 14 14 15 15 16 16 16 16 17 17 17 18 19 19 20 20 21 22 23 23 23 24 24 25 24 23 22 21 20 20 19 18 16 15 15 16 16 18 18 17 19 19 17 19 21 23 28 28 25 23 22 20 22 24 25 29 31 30 28 28 26 25 25 25
23 21 19 18 16 14 13 11 8 6 4 2 2 3 5 7 9 11 12 13 14 15 15 16 16 16 16 16 16 16 17 17 18 19 19 20 21 22 23 23 24 24 24 24 24 23 21 19 18 17 17 16 15 15 14 15 17 17 17 18 18 18 19 19 19 21 22 26 29 28 25 23 22 21 22 23 25 28 29 28 26 27 27 26 25
24 22 20 18 17 16 14 12 9 7 6 3 1 3 5 7 9 11 13 14 16 16 16 17 16 16 16 16 16 16 16 17 18 19 20 21 22 23 23 24 24 24 24 25 24 22 19 17 17 15 14 15 15 14 15 16 16 17 17 18 18 18 19 20 19 20 22 25 28 29 27 24 22 21 20 21 23 25 28 29 28 27 26 26 26
24 23 21 19 18 17 14 12 10 9 7 4 1 2 5 7 9 12 14 15 16 17 17 17 17 17 16 16 16 17 17 17 18 19 20 21 22 23 23 24 24 24 24 24 22 19 17 16 16 15 14 14 15 15 16 17 16 17 17 17 18 18 19 20 19 20 22 23 25 26 27 25 23 21 20 20 22 23 23 25 26 26 25 25 25
25 23 22 21 20 18 15 13 12 10 7 4 1 2 5 8 10 12 14 16 17 17 18 18 18 17 17 17 17 17 17 18 19 20 20 21 22 22 23 23 23 23 23 22 19 17 17 16 15 15 14 14 15 16 17 17 18 18 18 17 17 18 19 19 19 19 20 22 24 24 25 25 23 21 20 19 20 20 19 20 23 25 27 27 28
26 24 24 23 21 19 16 14 12 10 7 4 2 3 5 8 10 12 14 15 17 18 18 18 18 18 18 18 18 18 18 18 19 19 20 20 21 22 23 22 21 21 19 18 17 16 15 15 15 15 15 16 17 19 19 18 19 19 19 18 18 19 19 19 19 20 20 21 23 23 23 24 22 21 20 19 19 21 21 22 23 24 26 27 28
26 26 25 24 22 19 17 15 13 10 7 5 3 4 6 8 10 12 14 15 17 17 18 18 18 18 17 18 18 18 18 18 18 19 19 19 19 21 22 21 19 17 16 15 15 15 14 15 16 17 17 18 18 19 19 19 19 20 20 19 19 19 20 20 20 20 20 21 22 22 21 22 22 21 21 20 20 22 23 22 23 24 24 22 23
27 27 26 24 22 19 17 15 13 11 8 6 4 5 7 9 11 13 14 15 17 17 17 17 17 17 17 18 18 19 18 18 19 19 18 17 17 18 19 18 16 15 15 14 14 14 14 16 17 17 17 17 17 18 19 19 18 19 19 19 19 19 20 21 21 21 21 22 23 22 22 24 24 22 23 22 22 23 23 23 23 24 23 19 18
28 27 26 24 22 20 18 15 13 11 9 6 5 6 8 10 12 13 15 15 16 16 17 17 17 17 17 18 19 19 19 18 18 19 18 17 16 16 17 17 15 15 15 15 14 14 14 16 16 16 16 16 17 19 19 19 18 18 18 17 17 18 19 20 21 22 22 23 25 24 23 25 25 23 22 22 22 23 24 24 24 24 25 23 21
28 27 26 24 22 20 18 15 13 12 9 6 6 7 9 11 13 14 15 15 16 16 16 16 16 17 17 18 19 20 19 19 19 18 18 17 16 15 16 17 16 17 16 16 15 13 14 16 17 16 16 16 18 18 18 18 18 17 17 17 17 19 20 22 23 24 25 26 27 27 25 24 25 23 22 22 24 25 25 25 25 25 26 25 24
29 28 26 24 23 20 17 16 14 12 8 7 8 9 10 12 13 15 15 15 16 16 16 16 17 17 17 18 20 21 20 19 19 19 18 18 16 15 16 17 17 18 16 14 14 14 15 16 16 17 17 17 18 18 18 19 19 18 18 19 20 22 23 25 25 26 26 26 27 27 25 25 25 25 24 23 25 26 26 26 27 27 29 29 29
29 28 26 25 23 20 18 17 14 11 9 8 9 10 11 13 14 15 15 15 16 16 16 17 17 17 18 19 20 22 20 18 18 19 18 17 16 15 16 16 16 17 16 14 14 14 14 15 17 18 19 19 20 20 20 21 21 21 22 23 25 25 25 25 26 25 24 24 26 26 26 26 26 27 27 26 27 28 28 29 30 30 31 31 29
30 29 27 26 24 21 20 17 14 11 10 9 10 11 12 13 14 15 15 15 16 17 17 18 18 19 19 19 21 23 21 18 18 18 18 16 15 15 15 14 15 16 16 15 14 14 14 16 17 18 20 22 22 22 23 23 23 25 28 30 29 27 25 25 25 25 26 27 29 29 30 30 31 31 30 30 31 31 30 31 30 28 29 27 25
31 30 29 27 24 23 20 17 14 13 11 11 11 12 13 13 14 15 15 16 17 17 18 19 19 20 20 20 21 23 22 19 18 18 17 15 13 14 14 14 15 16 16 15 15 14 15 16 17 20 22 23 24 24 25 25 26 28 30 30 27 25 24 24 25 27 29 32 32 33 33 33 32 31 31 31 32 31 30 30 28 26 25 20 18
33 31 29 27 26 24 21 17 15 13 12 12 12 12 13 14 14 15 16 17 18 18 18 20 20 20 20 19 20 22 22 20 18 17 16 13 12 14 14 14 15 16 16 16 14 14 16 18 20 23 25 25 26 26 27 27 27 29 28 27 25 24 24 24 25 26 27 29 29 30 30 30 28 28 29 30 30 29 29 29 27 26 24 20 19
35 33 30 28 27 24 20 18 16 14 13 13 13 13 14 14 15 16 17 17 18 18 19 20 21 20 20 19 19 20 22 21 18 17 15 12 12 14 14 14 16 16 15 15 16 16 18 20 22 24 25 26 26 27 27 27 28 28 28 25 24 24 23 24 25 25 25 26 25 24 24 23 23 25 27 27 28 27 28 28 27 26 26 25 25
36 33 31 29 26 23 21 19 16 15 14 14 13 13 14 15 15 16 17 17 18 19 19 20 21 21 20 20 19 19 20 21 19 16 14 12 12 14 14 15 16 17 17 19 21 22 22 21 21 22 23 24 25 26 27 28 29 31 29 27 25 24 24 26 27 26 25 25 23 21 21 21 21 23 24 25 25 26 26 26 26 26 26 27 27
34 33 31 28 26 23 21 19 17 16 15 14 14 14 14 15 16 16 17 18 18 19 20 20 22 22 20 19 19 18 19 20 18 16 15 13 12 14 14 15 16 18 20 21 22 22 22 21 20 21 23 24 25 26 29 32 34 32 28 25 25 25 27 27 26 23 22 22 21 21 22 22 21 21 21 21 22 22 22 23 23 24 25 26 26
34 33 31 28 26 24 21 19 18 16 16 15 14 14 14 15 15 16 16 17 18 19 20 20 21 21 21 19 18 18 18 18 17 17 16 14 13 14 15 15 17 19 20 20 19 20 21 22 22 23 24 26 29 31 32 33 31 25 21 22 25 28 29 27 24 21 21 22 22 22 22 22 22 22 21 22 22 21 21 21 21 22 23 25 26
34 32 31 28 26 24 22 20 18 17 16 15 14 14 15 15 15 15 16 17 18 19 19 19 20 21 21 19 18 18 18 17 16 17 16 14 14 15 15 16 17 18 20 20 20 20 21 22 23 25 27 29 30 29 27 26 24 23 24 28 31 31 28 25 22 21 20 19 19 20 20 20 20 20 21 21 21 21 21 21 21 22 23 25 26
33 32 30 28 26 24 22 20 18 17 16 15 14 14 14 14 14 14 15 16 17 18 18 19 19 19 19 19 18 18 17 16 15 14 14 14 14 14 15 17 18 18 19 19 19 19 21 22 25 27 28 28 27 27 27 29 30 30 30 31 30 27 22 19 18 17 16 15 16 17 18 18 17 19 20 20 21 22 22 22 22 23 24 25 26
33 32 31 29 27 24 22 20 18 17 16 15 15 14 14 14 14 14 14 15 16 17 17 17 17 17 16 16 15 14 13 12 13 13 13 12 12 14 15 17 18 18 17 17 17 18 21 24 25 26 26 26 26 28 31 34 33 29 26 24 22 19 16 14 14 13 13 14 15 15 17 17 18 19 20 21 22 23 23 23 23 23 24 25 25
35 33 31 29 27 24 22 20 18 17 16 16 15 14 14 14 13 13 14 15 15 16 16 15 15 14 12 11 11 11 11 12 13 12 10 11 14 17 18 18 18 17 16 17 18 20 22 24 24 24 25 25 23 23 24 25 23 21 18 16 15 14 13 13 13 14 15 15 16 17 18 19 19 20 21 21 22 23 23 22 23 23 23 24 25
35 34 32 29 27 24 22 20 18 17 16 16 15 15 14 13 13 14 14 15 15 15 15 14 12 10 8 8 10 13 14 14 11 9 10 14 18 19 19 18 17 14 15 18 19 20 23 24 23 21 20 19 17 16 16 17 17 17 15 14 13 13 13 13 14 15 16 16 17 18 19 20 21 21 21 21 21 22 22 21 22 23 22 23 25
34 33 32 29 27 25 23 20 19 18 17 17 16 15 14 14 14 14 14 14 15 14 13 12 10 8 9 12 15 18 16 12 9 10 14 18 20 19 17 16 15 13 15 17 19 22 24 23 19 15 14 14 14 14 14 14 14 14 14 14 13 12 12 13 13 14 14 15 16 18 19 20 20 21 21 21 22 23 22 21 22 22 22 22 23
33 32 30 29 27 25 22 21 19 18 17 17 16 15 14 14 14 14 14 14 14 14 13 12 12 12 14 16 17 16 14 12 12 15 17 18 18 18 17 16 15 15 15 16 20 23 22 17 13 11 12 13 13 13 13 14 14 14 15 14 13 12 12 12 12 13 14 14 16 18 19 19 20 21 21 21 22 22 22 22 23 23 23 23 22
33 32 31 29 28 25 23 21 20 18 17 17 15 15 14 13 14 15 14 13 12 12 13 14 15 15 15 15 13 13 14 16 17 18 18 17 17 17 16 15 14 15 15 16 19 20 17 13 11 11 11 12 12 12 13 13 14 15 16 14 13 13 13 13 13 14 14 15 16 17 18 19 20 20 20 21 22 23 23 23 24 24 23 22 22
35 34 32 31 28 25 23 22 20 18 17 16 15 15 13 12 13 13 12 11 10 10 12 14 13 13 13 13 13 13 14 15 16 16 16 16 16 16 15 13 13 13 13 15 16 15 13 11 11 10 10 11 11 11 11 12 13 14 15 15 15 15 14 13 13 13 14 15 16 17 18 18 19 20 20 21 23 23 23 23 23 23 23 23 23
38 36 34 31 28 24 22 21 20 18 17 16 16 15 13 11 10 11 11 10 10 10 12 12 11 10 10 11 12 13 13 13 13 14 15 15 15 14 13 13 13 12 12 13 13 11 9 9 9 9 10 10 10 10 10 10 11 12 13 15 16 15 15 16 17 17 17 16 15 15 17 18 19 20 21 22 22 23 23 22 22 22 23 23 23
38 37 34 30 26 24 23 22 20 19 18 17 16 15 13 10 9 9 11 12 11 10 11 12 12 12 10 10 10 11 12 12 12 13 13 13 13 12 13 15 15 13 12 12 11 9 8 7 8 8 9 9 9 10 9 9 11 12 12 13 14 15 19 22 22 20 18 15 15 17 19 20 20 21 21 22 22 22 22 22 22 22 22 22 22
36 34 31 28 27 25 24 23 21 20 18 17 16 14 13 11 10 10 11 13 13 11 8 9 12 14 12 10 9 9 10 11 11 11 11 11 11 11 14 16 14 11 10 10 9 7 6 7 7 8 8 8 8 9 9 10 11 12 12 13 13 14 18 21 19 16 15 16 17 19 20 20 21 21 21 22 22 21 22 22 21 21 21 21 21
34 31 28 26 26 25 24 23 21 20 19 18 16 14 12 11 10 10 11 12 14 14 10 7 9 12 12 10 9 8 8 8 9 8 9 9 10 12 14 13 11 10 10 10 8 6 6 7 7 7 7 8 10 10 11 12 12 13 14 14 15 16 19 20 18 16 17 19 19 19 20 20 21 21 21 22 22 21 22 22 21 21 22 22 22
32 30 27 26 25 24 23 22 21 20 18 17 15 14 13 12 12 12 12 13 14 14 12 8 7 9 10 10 9 8 7 7 7 7 8 10 12 13 12 10 10 10 11 10 8 8 7 7 7 8 8 10 12 13 14 14 16 17 17 17 18 21 22 19 17 18 20 20 20 20 20 21 21 21 21 22 22 22 22 22 22 22 23 23 23
33 30 28 27 25 24 23 22 20 19 17 15 15 14 14 13 13 12 13 13 13 13 13 10 7 7 8 8 8 8 8 7 6 6 8 10 11 10 9 8 9 10 10 9 8 9 9 8 8 8 10 12 14 15 16 17 17 18 18 18 19 21 20 17 16 19 20 20 20 21 21 21 21 21 21 21 22 22 22 22 23 23 24 24 23
31 29 27 26 25 24 22 21 19 18 17 16 16 16 15 14 13 13 13 13 13 12 12 11 8 6 6 7 7 7 7 6 5 5 6 7 8 8 8 8 9 9 10 10 9 10 11 11 10 10 12 14 15 16 17 17 17 17 18 18 19 19 18 16 16 17 18 20 21 21 22 22 22 20 20 20 21 22 23 23 24 24 24 23 21
29 27 25 23 22 22 21 20 20 19 18 17 17 16 15 14 14 14 14 13 13 13 13 11 10 8 7 7 7 6 6 5 5 6 7 6 6 6 7 8 9 10 11 12 11 12 13 13 13 13 14 14 15 16 17 18 18 19 19 18 18 19 18 16 16 17 19 20 21 21 22 23 22 21 20 20 21 22 23 24 24 23 23 23 22
28 26 24 22 22 21 20 19 19 19 18 18 18 17 16 15 15 15 14 13 14 14 13 13 11 8 7 7 7 5 6 7 8 9 9 7 6 7 7 8 9 10 11 12 12 13 13 14 14 15 14 14 14 15 17 18 19 19 19 18 17 18 18 16 16 18 19 19 19 20 21 22 23 22 21 21 21 21 22 23 23 22 22 22 22
26 25 24 23 22 21 20 20 20 19 18 18 17 17 17 16 15 14 13 13 14 15 14 13 12 8 7 8 7 7 10 13 14 12 10 8 7 8 7 8 9 10 11 12 13 13 14 15 15 15 15 14 14 14 16 17 18 19 20 19 17 17 18 17 16 17 18 17 16 16 18 21 22 22 21 22 22 22 22 22 22 22 22 22 22
25 24 23 23 22 21 20 20 19 18 18 18 17 16 17 16 15 14 14 14 15 15 14 13 12 9 7 8 8 9 13 16 16 13 11 9 9 9 9 9 10 10 10 11 12 13 14 15 15 15 15 14 13 14 15 17 18 18 19 19 18 18 19 18 17 18 19 18 17 19 22 23 22 20 21 21 21 21 22 21 21 22 22 21 21
22 22 22 21 21 20 19 18 18 17 17 17 16 16 16 15 15 14 14 15 15 15 14 13 12 10 9 9 9 11 14 16 15 13 12 11 10 10 10 10 11 11 11 11 11 12 14 15 15 15 15 14 13 13 14 15 17 18 19 19 19 19 19 19 18 19 20 19 21 26 30 27 23 22 22 21 21 21 21 21 21 21 22 21 21
20 20 20 19 18 18 18 17 16 17 17 16 15 15 15 15 15 15 15 16 16 15 14 13 12 12 11 10 11 13 15 15 15 14 13 12 11 11 11 11 12 13 13 12 12 12 14 15 16 16 16 15 14 13 13 14 15 16 17 18 19 19 20 20 20 21 22 21 22 26 30 29 26 24 23 21 21 20 20 20 21 21 21 20 19
18 18 18 17 17 17 16 16 16 16 16 15 16 16 16 16 16 16 16 17 16 15 13 12 12 13 13 13 13 14 15 16 16 15 14 13 13 12 12 13 14 14 14 14 14 14 14 15 16 17 17 17 16 15 14 13 14 15 16 17 17 18 20 21 22 24 26 25 23 24 28 29 27 26 24 23 21 19 19 20 21 20 19 19 18
16 16 16 16 16 16 15 15 15 16 16 16 17 17 17 17 18 17 17 17 16 14 13 12 13 14 14 15 15 16 17 17 17 17 16 15 15 14 14 15 15 16 16 16 16 16 16 17 17 18 18 18 18 17 16 15 14 15 15 15 16 17 19 22 23 25 26 25 24 25 26 27 27 26 26 25 23 20 20 21 20 19 18 19 17
14 14 14 14 14 14 14 14 15 15 16 18 18 19 18 18 18 17 17 16 15 14 14 13 14 15 15 15 16 17 18 18 19 19 18 17 16 16 16 17 17 18 18 18 18 18 18 18 18 19 19 19 19 18 18 17 16 16 16 16 15 16 18 20 21 22 23 24 25 25 24 24 26 26 26 25 24 23 23 22 21 19 19 18 17
13 13 13 13 13 13 13 14 15 16 18 19 19 19 19 18 18 17 17 16 15 15 15 15 15 16 16 16 17 17 18 19 21 21 20 20 19 18 19 19 19 20 20 20 20 19 19 19 19 19 20 20 19 19 19 19 18 17 17 17 16 16 17 18 20 21 22 24 26 26 23 22 23 24 24 25 24 23 23 23 23 22 19 17 16
12 12 13 13 13 13 13 14 15 17 18 19 19 19 18 18 18 17 17 16 15 15 15 16 16 16 17 17 17 17 18 20 21 22 22 21 21 20 20 21 21 21 21 21 21 20 20 20 20 20 20 20 20 20 19 19 19 18 19 19 18 18 18 18 19 21 23 24 26 25 23 21 21 22 22 23 23 22 22 23 23 22 20 18 18
11 12 12 12 13 13 13 14 16 17 18 19 19 19 19 19 19 18 17 16 16 16 16 17 17 17 17 17 18 18 19 20 22 23 23 23 22 22 21 21 21 21 21 21 21 20 20 19 19 19 19 20 20 20 20 20 20 19 19 19 19 19 19 19 19 21 22 23 24 26 24 21 19 20 20 21 22 22 23 23 22 22 21 21 21
11 11 12 13 13 13 14 15 16 18 18 18 19 19 20 20 19 19 18 17 17 17 18 18 18 18 18 18 19 19 20 21 22 23 23 23 22 21 21 21 20 20 21 21 21 20 20 20 20 20 20 20 20 20 20 21 20 20 20 20 20 19 20 19 20 22 22 21 23 25 23 19 17 18 18 19 20 20 21 22 22 22 22 22 22
Wind_Direction
152 150 148 144 140 137 134 129 120 113 105 94 81 69 58 47 38 30 23 18 15 13 11 8 6 4 2 0 359 358 359 358 357 358 357 355 352 351 350 349 347 344 341 339 338 335 332 329 324 321 318 312 306 304 300 297 296 290 287 286 282 278 277 275 276 285 287 283 281 285 289 294 295 294 293 294 294 295 293 286 283 286 284 283 286
160 158 155 153 152 149 146 140 132 127 118 102 82 65 53 41 32 24 18 13 10 8 4 2 1 359 357 356 355 354 354 353 353 352 351 350 348 347 346 344 342 340 338 336 333 331 329 327 324 321 319 315 310 307 304 301 300 296 292 292 288 284 281 280 281 284 288 289 286 285 286 284 288 292 295 296 296 296 293 287 283 281 279 279 279
167 166 164 163 163 161 158 155 151 150 143 116 81 60 46 35 26 18 13 9 5 2 358 357 355 353 352 350 349 349 350 349 349 348 347 346 345 343 342 340 338 336 334 332 330 328 326 323 320 319 317 315 313 310 307 304 303 299 296 294 291 288 285 281 281 281 286 290 290 289 289 283 280 286 291 294 295 296 293 290 288 283 278 276 274
174 173 173 173 172 173 172 170 172 176 177 152 85 56 39 28 20 13 8 4 360 356 353 351 349 347 346 345 345 345 346 346 345 345 345 344 342 340 338 337 335 333 331 328 326 324 322 317 314 314 313 311 309 307 306 304 302 299 296 295 292 291 290 284 280 280 284 288 290 290 291 288 283 283 287 291 292 293 293 291 291 289 284 279 274
179 179 180 181 181 183 184 184 187 196 203 191 109 57 34 23 14 7 2 358 354 351 348 346 344 342 341 340 341 342 343 343 343 343 343 342 340 338 336 335 333 330 327 325 323 320 316 311 308 309 309 305 303 304 303 302 300 296 294 294 293 292 291 288 284 284 283 285 289 292 292 292 290 287 287 289 289 291 291 291 292 292 290 287 282
184 184 186 187 190 192 193 195 201 209 213 203 136 52 26 14 6 1 355 351 348 345 343 341 339 338 337 337 338 339 341 342 342 342 342 340 338 336 334 332 329 326 323 321 320 316 310 306 305 304 302 300 300 301 301 300 298 295 293 294 294 292 291 290 289 287 285 284 287 291 294 294 295 295 293 292 289 287 289 291 292 292 290 290 289
188 189 190 193 197 198 200 204 208 213 215 208 164 30 11 3 358 354 349 345 342 339 338 336 335 334 334 334 335 337 340 342 342 342 341 338 336 333 330 327 324 321 319 317 315 311 305 303 301 299 297 296 296 299 301 301 298 294 294 294 294 293 291 291 291 289 288 287 287 289 293 296 297 298 298 297 292 287 286 289 291 292 293 294 294
192 193 195 199 202 203 205 208 210 215 217 212 210 0 356 352 349 346 342 339 336 334 332 331 330 330 330 330 332 334 338 341 341 340 338 335 333 328 324 322 318 315 313 312 308 304 301 299 296 294 292 290 291 294 295 296 296 294 293 293 293 293 293 293 294 293 291 289 288 290 293 296 297 299 301 301 296 292 292 293 293 294 294 294 293
197 199 200 202 205 205 206 208 211 216 218 217 251 330 339 340 340 337 334 331 329 327 326 325 324 324 324 326 327 331 335 338 338 336 334 332 328 323 319 316 313 310 307 305 301 298 296 295 292 290 288 287 288 289 288 288 288 289 291 292 293 293 293 293 293 293 291 289 289 291 293 294 297 300 300 299 297 296 297 296 293 293 293 294 292
201 201 201 204 205 205 206 208 212 217 219 224 258 309 326 329 329 327 325 324 322 321 319 319 318 318 319 322 323 327 333 336 334 332 332 328 322 318 314 310 306 302 299 296 296 295 292 291 291 288 288 289 287 287 287 285 283 283 285 288 290 291 292 292 292 291 290 289 289 292 293 292 295 299 299 299 300 299 298 296 294 295 298 300 296
202 202 202 204 205 204 204 207 213 219 222 232 266 303 317 320 320 318 318 317 316 315 314 313 314 314 316 320 322 326 332 334 332 329 327 322 316 312 307 302 296 293 292 291 292 292 290 291 291 290 290 291 289 288 288 287 285 284 284 285 286 287 290 291 291 291 290 290 290 291 292 292 295 297 297 300 301 298 297 296 295 295 295 295 294
201 201 203 204 204 202 204 208 215 222 226 241 276 302 309 312 313 312 311 311 310 311 310 309 310 312 315 319 321 324 330 333 330 326 322 317 313 307 299 293 290 288 288 286 286 287 288 289 291 290 289 289 289 289 288 287 287 286 286 286 285 284 284 285 287 288 287 287 288 288 288 289 292 294 295 298 298 295 294 292 291 290 288 286 285
200 202 203 204 203 202 205 211 218 225 232 252 281 298 303 306 307 306 305 307 306 307 307 307 309 311 315 319 321 323 330 332 327 322 318 314 311 303 293 288 286 285 284 283 282 283 284 288 290 289 288 290 289 287 287 289 290 288 287 288 285 283 280 279 280 281 282 283 284 284 285 285 287 289 292 295 296 295 293 291 289 288 286 285 285
200 202 202 202 203 203 208 214 220 228 239 261 281 292 298 300 300 299 300 302 303 305 305 306 308 311 315 319 320 322 328 329 323 319 315 311 308 300 291 286 283 281 281 280 279 279 281 285 286 286 289 289 287 286 287 288 289 288 287 284 281 280 278 277 277 277 277 277 277 279 280 280 281 285 288 290 288 287 286 288 289 288 287 288 289
199 202 202 202 204 206 211 216 221 231 245 263 277 286 290 292 293 294 297 300 302 303 304 306 308 312 317 321 320 321 326 327 320 315 311 309 307 299 289 283 280 279 279 277 277 278 280 281 283 284 286 285 284 284 286 287 286 285 282 279 276 274 274 274 274 274 274 273 272 274 275 275 277 280 283 283 281 279 280 283 287 289 289 289 289
199 202 203 204 206 209 214 218 223 234 247 260 271 278 283 285 287 290 294 298 300 302 303 306 310 313 318 322 320 319 323 324 317 311 309 310 306 297 288 282 279 278 279 279 279 279 279 280 282 283 282 282 283 284 285 286 286 283 280 277 274 272 272 273 272 274 276 275 273 274 274 275 277 279 280 281 281 282 285 286 288 290 290 289 288
202 204 205 206 209 213 216 219 226 236 246 256 265 272 276 280 284 289 293 296 297 300 303 305 309 313 317 320 319 317 318 320 314 309 310 311 304 294 287 282 279 279 281 282 282 282 280 279 281 282 282 283 284 285 287 287 286 284 281 279 277 274 274 275 274 275 278 278 279 282 284 285 287 288 286 285 284 286 287 287 287 289 288 287 287
206 206 207 210 213 216 217 221 228 236 244 253 261 268 273 277 283 287 291 294 295 298 302 305 307 311 315 318 318 315 314 316 313 310 311 313 303 293 288 283 280 281 284 285 284 282 279 278 278 279 281 283 285 287 288 289 287 285 284 283 279 274 274 274 274 276 278 278 279 283 286 290 291 290 287 285 284 285 283 281 282 283 282 281 282
209 208 210 213 215 216 218 223 229 235 243 252 258 265 271 276 281 286 288 292 295 298 301 304 306 310 314 316 317 315 312 313 313 312 314 315 304 292 288 284 282 283 286 287 286 284 282 280 279 280 283 286 287 289 290 290 288 285 283 282 278 274 276 279 280 280 281 281 280 278 280 283 284 282 282 281 280 279 277 276 277 277 277 277 279
211 210 212 213 214 216 220 224 229 235 243 250 257 263 270 274 278 284 287 290 293 297 301 304 305 309 313 316 317 315 310 309 311 313 317 317 305 295 290 287 286 287 286 284 284 287 288 285 282 284 288 290 291 292 293 291 288 285 284 284 282 283 289 293 293 292 291 293 292 288 286 286 283 281 280 279 279 278 276 275 274 273 274 276 276
211 211 212 212 214 217 220 224 229 235 242 249 256 261 267 272 277 282 285 288 292 296 300 303 305 309 314 317 317 313 308 308 310 313 320 319 306 297 294 290 289 291 290 288 288 290 291 290 289 291 294 296 296 295 292 290 290 289 289 290 292 297 303 307 307 305 303 301 298 294 291 288 285 282 281 280 280 280 279 277 275 273 273 274 275
211 211 211 211 214 217 220 224 229 236 243 249 254 261 266 271 276 280 283 287 291 295 299 303 306 309 314 316 315 310 307 308 312 320 328 323 305 298 296 293 294 296 296 295 294 292 293 295 296 297 297 297 296 295 295 297 300 302 302 303 305 308 310 311 309 305 301 298 294 290 287 285 284 283 282 282 283 282 282 280 278 276 273 271 272
212 210 210 212 215 217 220 225 230 236 244 250 254 260 265 269 274 278 282 287 292 296 300 304 308 311 315 316 315 312 310 313 320 328 329 316 303 301 300 298 299 299 297 296 295 295 296 297 296 296 298 298 300 303 307 310 312 312 309 307 308 309 308 305 301 299 297 293 289 286 283 283 284 285 285 286 287 285 284 283 280 278 275 271 269
210 208 209 212 214 217 220 224 231 236 243 250 254 258 263 267 271 276 281 287 292 297 301 305 309 312 314 317 318 319 318 319 321 322 316 308 306 308 306 305 305 302 298 296 295 295 296 295 296 299 302 305 309 312 308 304 304 306 306 307 307 308 307 302 299 297 295 290 286 284 282 283 285 286 287 289 289 287 285 284 281 278 276 273 270
206 207 209 211 214 217 219 224 231 237 242 248 253 257 261 265 268 273 280 286 290 295 300 304 307 310 313 318 320 320 319 314 311 311 309 307 311 314 313 312 309 305 302 299 298 299 301 303 305 307 309 310 311 309 303 299 302 307 310 310 312 312 311 308 304 300 296 291 288 285 284 285 285 285 287 288 288 287 286 284 283 280 278 276 273
204 206 208 211 213 215 219 223 229 234 241 246 251 254 258 261 266 272 278 282 286 292 296 300 305 309 311 312 310 310 311 309 307 308 306 305 315 323 323 317 312 309 310 311 311 310 309 309 310 310 309 309 310 310 308 308 312 317 319 321 322 319 315 312 308 303 298 295 293 291 289 290 290 289 289 288 285 283 283 284 285 283 281 280 279
205 206 207 210 211 213 218 223 226 232 238 242 247 251 254 258 263 267 274 279 283 287 291 295 301 302 298 300 303 307 311 310 305 303 306 312 320 324 321 317 316 317 321 322 317 310 308 310 312 311 312 316 321 324 324 324 326 327 326 326 322 316 312 307 302 299 296 294 294 294 293 294 294 292 291 289 285 282 282 283 283 281 281 281 279
208 208 209 209 211 214 218 221 224 229 234 239 243 247 251 256 261 266 271 275 277 281 283 284 287 289 294 302 306 307 308 307 301 303 310 315 318 317 316 319 323 326 330 327 316 309 313 319 324 327 328 331 335 335 332 330 328 324 322 320 317 313 311 308 303 298 295 294 294 294 294 294 293 292 291 289 286 285 285 284 282 281 282 280 276
209 210 210 209 212 214 216 219 223 226 231 236 240 244 249 254 260 265 269 271 275 281 281 281 289 299 302 303 303 301 300 299 299 303 307 311 313 314 317 322 324 327 332 326 314 313 322 331 336 339 338 335 335 334 331 329 326 323 322 322 319 316 313 310 308 306 303 301 298 296 295 294 292 292 293 292 289 290 290 288 286 285 283 279 275
207 209 210 210 212 213 213 217 221 223 228 233 237 241 247 252 259 265 270 274 281 283 276 278 289 297 296 294 291 287 288 293 299 303 306 309 311 314 317 321 324 329 330 320 314 320 332 339 340 340 338 333 331 329 328 326 323 323 325 324 321 319 316 312 312 312 309 306 300 296 296 295 294 294 294 292 292 293 293 291 289 285 282 278 275
206 208 210 211 212 212 213 217 219 220 224 229 233 237 240 246 258 268 271 274 276 268 257 261 272 277 277 280 281 282 286 291 295 300 306 309 312 316 320 323 329 334 328 317 316 327 338 339 337 334 329 323 320 318 318 318 316 317 320 320 321 321 317 312 311 311 307 301 297 296 297 296 295 294 294 293 294 295 295 295 293 288 282 276 274
209 210 211 211 211 211 213 215 217 218 222 225 228 231 232 235 248 264 269 268 265 259 252 252 254 258 266 274 279 283 287 290 294 300 306 309 313 318 320 319 324 329 321 314 321 334 339 331 323 318 314 311 309 310 310 309 311 312 311 313 317 319 318 317 316 313 307 299 294 299 303 301 299 299 298 297 297 297 297 297 296 293 287 280 275
213 212 211 208 208 209 210 213 215 217 220 222 224 226 228 228 233 248 262 269 269 263 254 249 248 250 257 266 274 279 283 287 294 301 304 307 316 320 315 312 316 318 314 318 331 339 332 317 306 303 305 303 303 307 307 305 308 309 305 305 307 310 318 325 324 316 308 302 303 308 308 305 303 303 302 300 300 299 298 297 296 295 292 286 281
214 214 212 209 208 209 210 212 214 216 218 221 222 223 227 230 233 240 253 266 274 273 259 244 245 249 251 252 260 272 282 287 293 298 304 314 322 317 309 310 314 314 316 328 339 332 313 304 299 299 302 302 304 308 309 310 313 310 306 304 300 302 314 322 319 311 308 312 315 314 312 310 309 307 305 305 303 301 300 298 297 297 295 291 286
212 212 212 211 211 211 212 212 213 214 215 217 220 223 226 231 236 240 247 258 269 276 273 246 233 242 248 246 243 251 271 286 291 296 305 314 312 305 305 313 319 321 327 336 337 320 303 301 302 303 303 307 314 317 313 311 313 313 310 308 306 309 316 317 315 316 322 324 322 318 315 314 313 311 309 307 305 303 302 301 301 301 300 297 291
210 208 207 207 209 210 211 212 211 212 214 215 219 223 226 230 232 238 244 250 258 270 276 264 230 230 242 246 239 235 248 269 286 294 297 297 296 300 309 320 327 329 332 334 330 322 315 306 303 303 306 312 320 323 319 317 319 320 317 314 313 315 316 317 322 330 332 330 326 322 319 317 315 313 312 310 307 305 304 303 304 304 304 303 298
208 207 206 206 207 208 210 211 210 210 211 214 218 220 223 227 229 232 239 246 254 263 271 272 255 231 231 240 243 240 239 240 250 271 283 286 290 297 308 319 325 327 326 323 321 320 319 312 304 305 313 320 323 323 321 320 320 318 318 318 316 313 313 320 330 334 335 334 332 328 325 322 318 316 315 312 310 310 308 307 307 307 306 307 306
209 209 209 209 208 208 208 208 207 207 207 211 216 218 220 223 227 230 236 243 252 258 262 266 264 248 234 236 243 248 247 239 236 255 275 283 289 293 302 313 320 322 320 318 315 314 315 316 314 316 321 324 325 324 324 322 320 318 318 319 317 315 318 327 334 335 336 337 335 332 330 327 323 319 316 314 311 312 312 311 311 310 308 309 310
208 209 210 210 209 208 208 207 207 207 207 210 214 217 218 220 225 230 235 241 248 252 255 260 260 253 246 241 241 253 266 264 260 273 284 291 293 293 300 309 315 317 319 320 317 314 314 318 321 323 325 324 325 327 328 326 326 327 325 320 318 320 325 331 334 336 338 337 335 334 332 329 325 322 319 315 312 312 313 313 312 311 310 310 310
205 205 206 206 206 207 208 209 210 210 210 212 214 217 219 223 227 231 234 240 246 248 253 257 256 252 250 245 240 257 280 275 268 276 286 291 293 294 298 305 309 313 316 317 318 316 316 318 322 324 324 322 323 328 331 331 331 333 330 324 320 321 325 329 332 335 337 336 333 331 331 330 328 324 321 318 317 316 314 313 312 312 311 310 310
204 203 202 202 204 206 207 210 213 214 214 215 216 219 223 227 231 233 234 238 243 246 251 255 254 251 250 244 240 257 276 273 269 273 280 282 286 292 295 297 302 306 308 311 314 313 313 316 319 320 322 323 322 326 330 332 333 333 331 327 321 319 321 326 330 333 335 334 331 329 330 331 329 326 322 320 320 319 317 315 315 315 314 315 315
205 204 202 201 203 205 207 210 213 216 217 217 218 222 227 230 231 233 235 238 242 245 250 254 255 253 249 247 245 252 262 263 263 267 272 274 277 285 289 292 295 298 300 304 307 307 307 310 313 316 320 323 321 321 324 328 331 331 329 326 323 320 319 322 327 331 334 332 331 333 335 333 329 326 324 323 321 321 320 320 320 319 319 319 320
207 206 205 205 206 208 210 213 217 219 220 222 225 228 231 231 231 233 236 238 241 245 248 252 256 255 251 250 250 250 253 257 260 263 267 270 274 280 285 288 291 294 296 299 300 300 302 305 307 311 315 318 318 316 315 319 324 325 325 326 325 321 317 317 323 329 330 326 329 338 342 340 335 331 329 327 325 324 323 323 324 324 322 320 322
207 207 209 210 212 214 215 217 222 226 228 230 232 233 233 233 233 235 237 239 241 245 248 251 256 258 257 257 258 258 260 263 265 266 268 271 275 280 283 287 290 292 295 299 299 298 299 301 303 306 309 312 315 313 308 309 315 318 320 323 323 319 317 317 320 326 327 320 321 334 342 343 341 338 334 331 328 326 326 326 326 325 325 324 326
207 209 211 212 214 217 219 220 225 229 232 233 235 235 235 235 235 237 239 241 244 247 249 251 255 259 261 262 264 266 268 270 271 272 274 276 279 282 284 287 289 291 294 298 299 299 299 300 301 303 304 306 310 311 307 306 307 309 315 321 319 315 318 321 323 328 330 323 319 329 340 344 344 342 339 336 332 326 324 327 326 325 326 328 328
210 213 216 217 218 221 224 226 229 232 234 236 238 238 237 237 238 239 241 243 246 249 251 253 256 258 261 264 266 269 272 274 276 277 278 279 282 285 286 288 290 292 294 296 297 298 299 299 299 301 301 301 303 304 305 305 304 302 308 317 316 312 315 320 324 330 334 327 320 325 336 344 346 346 344 342 339 333 330 330 328 324 325 327 327
217 219 221 223 224 227 231 233 234 237 239 239 240 241 240 241 242 243 244 246 249 251 253 255 256 257 260 263 265 269 274 277 278 280 281 282 285 287 288 289 290 292 293 295 296 296 298 297 297 298 298 297 297 298 299 301 303 301 303 309 313 312 313 315 318 324 329 326 321 322 330 341 347 349 349 348 345 341 339 337 335 331 327 326 329
221 223 224 227 230 232 235 238 239 241 243 244 243 244 245 245 246 247 247 248 250 252 254 256 257 259 261 264 266 269 273 277 279 281 283 285 286 287 288 290 291 292 293 294 295 295 296 296 296 296 296 296 296 295 294 295 298 299 301 303 307 308 308 308 311 317 324 328 326 323 326 335 342 347 351 352 350 346 343 342 344 343 338 332 332
225 226 227 231 235 237 240 243 245 247 248 248 248 249 250 250 250 251 251 252 254 255 257 258 259 261 264 266 268 270 273 275 278 281 283 285 287 288 288 289 290 291 293 294 294 295 295 295 295 295 295 296 296 295 293 292 292 294 297 300 302 304 304 304 308 314 320 327 329 325 322 328 337 344 350 353 353 352 350 348 349 350 347 343 345
228 229 231 236 240 243 245 248 251 253 253 253 253 253 254 254 255 255 256 257 259 259 261 262 263 264 266 268 270 272 273 275 278 281 283 284 286 287 287 288 289 290 292 293 295 296 295 296 297 297 297 298 297 296 295 293 290 290 293 296 299 302 304 305 308 312 315 322 328 325 320 321 329 339 346 352 354 356 356 355 355 356 355 354 356
232 234 236 240 243 246 248 251 254 257 258 257 257 258 259 260 262 263 263 264 264 264 265 266 267 267 268 270 272 273 275 276 278 280 282 284 285 286 286 287 289 290 292 293 294 296 297 298 299 299 300 300 300 298 297 295 293 291 292 293 296 300 304 306 307 307 308 315 323 323 319 317 324 333 342 349 352 354 356 358 -0 2 1 360 360